GW4220 Weather Reports


time (UTC)temp
C
wind
direction
speed
KPH
gust
KPH
rain 1hr
cm
rain 24hr
cm
rain mn
cm
humidity
%
barometer
mb
20260504110217 5 91 0.0 0.0 0.00 0.00 0.00 83 1016.2
20260504100142 3 107 0.0 0.0 0.00 0.00 0.00 80 1015.8
20260504090104 4 122 0.0 1.6 0.00 0.00 0.00 80 1015.7
20260504081535 5 121 0.0 0.0 0.00 0.00 0.00 77 1015.7
20260504081030 5 119 0.0 0.0 0.00 0.00 0.00 76 1015.6
20260504080527 5 118 0.0 0.0 0.00 0.00 0.00 76 1015.6
20260504050334 4 125 0.0 0.0 0.00 0.00 0.00 80 1015.1
20260504045831 3 124 0.0 0.0 0.00 0.00 0.00 79 1015.1
20260504045326 3 113 0.0 0.0 0.00 0.00 0.00 79 1015.1
20260504044823 4 108 0.0 0.0 0.00 0.00 0.00 79 1015.1
20260504044320 4 110 0.0 0.0 0.00 0.00 0.00 78 1015.1
20260504043817 4 95 1.6 1.6 0.00 0.00 0.00 78 1015.1
20260504043314 4 75 3.2 3.2 0.00 0.00 0.00 78 1015.3
20260504042812 4 114 1.6 1.6 0.00 0.00 0.00 78 1015.2
20260504042308 4 101 0.0 0.0 0.00 0.00 0.00 77 1015.2
20260504041805 4 99 0.0 0.0 0.00 0.00 0.00 76 1015.1
20260504041300 4 99 0.0 0.0 0.00 0.00 0.00 76 1015.2
20260504040757 4 93 1.6 1.6 0.00 0.00 0.00 76 1015.0
20260504040254 4 101 0.0 0.0 0.00 0.00 0.00 75 1015.1
20260504035750 5 100 0.0 0.0 0.00 0.00 0.00 75 1015.0
20260504035247 5 101 0.0 0.0 0.00 0.00 0.00 74 1014.8
20260504034745 5 94 0.0 1.6 0.00 0.00 0.00 73 1015.0
20260504034242 5 98 0.0 0.0 0.00 0.00 0.00 73 1015.1
20260504033740 5 96 0.0 0.0 0.00 0.00 0.00 72 1014.9
20260504033237 5 85 1.6 1.6 0.00 0.00 0.00 72 1015.0
20260504032734 5 104 0.0 0.0 0.00 0.00 0.00 71 1014.9
20260504032231 5 105 0.0 0.0 0.00 0.00 0.00 71 1014.9
20260504031727 6 113 0.0 0.0 0.00 0.00 0.00 71 1014.8
20260504031225 6 112 0.0 0.0 0.00 0.00 0.00 70 1015.0
20260504030720 6 105 0.0 0.0 0.00 0.00 0.00 70 1014.9
20260504030218 5 117 0.0 0.0 0.00 0.00 0.00 69 1014.8
20260504025714 5 116 0.0 0.0 0.00 0.00 0.00 69 1014.8
20260504025211 5 102 0.0 0.0 0.00 0.00 0.00 69 1014.9
20260504024708 6 107 0.0 0.0 0.00 0.00 0.00 68 1014.8
20260504024205 6 107 0.0 0.0 0.00 0.00 0.00 68 1014.8
20260504023702 6 108 0.0 0.0 0.00 0.00 0.00 67 1014.7
20260504023157 6 105 0.0 0.0 0.00 0.00 0.00 67 1014.9
20260504022654 6 97 1.6 1.6 0.00 0.00 0.00 67 1014.7
20260504022150 6 103 0.0 1.6 0.00 0.00 0.00 66 1014.7
20260504021648 6 99 1.6 1.6 0.00 0.00 0.00 65 1014.7
20260504021145 7 106 0.0 0.0 0.00 0.00 0.00 64 1014.8
20260504020642 7 106 0.0 0.0 0.00 0.00 0.00 63 1014.6
20260504020137 7 106 0.0 0.0 0.00 0.00 0.00 62 1014.7
20260504015634 7 116 0.0 0.0 0.00 0.00 0.00 61 1014.7
20260504015131 8 126 0.0 0.0 0.00 0.00 0.00 60 1014.7
20260504014626 8 122 0.0 0.0 0.00 0.00 0.00 60 1014.8
20260504014124 8 120 0.0 0.0 0.00 0.00 0.00 59 1014.8
20260504013621 8 116 0.0 0.0 0.00 0.00 0.00 58 1014.6
20260504013118 8 118 0.0 0.0 0.00 0.00 0.00 57 1014.7
20260504012615 8 105 0.0 0.0 0.00 0.00 0.00 56 1014.7
20260504012113 8 99 0.0 0.0 0.00 0.00 0.00 56 1014.5
20260504011610 8 105 0.0 0.0 0.00 0.00 0.00 54 1014.8
20260504011106 8 101 0.0 0.0 0.00 0.00 0.00 53 1014.5
20260504010602 9 100 0.0 0.0 0.00 0.00 0.00 51 1014.5
20260504010058 9 95 1.6 1.6 0.00 0.00 0.00 51 1014.4
20260504005555 9 97 1.6 1.6 0.00 0.00 0.00 49 1014.3
20260504005052 10 102 0.0 0.0 0.00 0.00 0.00 46 1014.3
20260504004550 10 106 0.0 0.0 0.00 0.00 0.00 45 1014.2
20260504004047 10 102 0.0 0.0 0.00 0.00 0.00 44 1014.4
20260504003543 11 99 0.0 1.6 0.00 0.00 0.00 43 1014.3
20260504003040 11 103 0.0 0.0 0.00 0.00 0.00 42 1014.1
20260504002537 11 102 0.0 0.0 0.00 0.00 0.00 43 1013.9
20260504002034 12 106 0.0 0.0 0.00 0.00 0.00 42 1013.9
20260504001532 12 105 0.0 0.0 0.00 0.00 0.00 39 1013.7
20260504001027 13 143 1.6 1.6 0.00 0.00 0.00 36 1013.8
20260504000525 13 87 1.6 3.2 0.00 0.00 0.00 37 1013.6
20260504000022 13 111 1.6 1.6 0.00 0.00 0.00 36 1013.7
20260503235521 13 107 1.6 3.2 0.00 0.00 0.00 36 1013.5
20260503235017 13 303 6.4 9.7 0.00 0.00 0.00 35 1013.5
20260503234515 13 236 8.0 9.7 0.00 0.00 0.00 35 1013.4
20260503234013 13 60 1.6 1.6 0.00 0.00 0.00 34 1013.5
20260503233509 13 104 0.0 0.0 0.00 0.00 0.00 34 1013.5
20260503233005 13 100 3.2 3.2 0.00 0.00 0.00 33 1013.5
20260503232502 13 63 3.2 3.2 0.00 0.00 0.00 33 1013.4
20260503232000 13 253 9.7 12.9 0.00 0.00 0.00 32 1013.3
20260503231457 13 80 4.8 4.8 0.00 0.00 0.00 32 1013.2
20260503230954 14 50 3.2 3.2 0.00 0.00 0.00 31 1013.1
20260503230450 14 298 4.8 4.8 0.00 0.00 0.00 31 1013.2
20260503225948 14 123 0.0 0.0 0.00 0.00 0.00 30 1013.1
20260503225444 14 134 0.0 1.6 0.00 0.00 0.00 30 1013.1
20260503224940 14 79 1.6 1.6 0.00 0.00 0.00 31 1013.0
20260503224437 14 295 3.2 3.2 0.00 0.00 0.00 30 1012.9
20260503223935 15 274 3.2 4.8 0.00 0.00 0.00 29 1013.0
20260503223433 15 300 3.2 3.2 0.00 0.00 0.00 30 1012.9
20260503222928 15 18 4.8 4.8 0.00 0.00 0.00 29 1012.8
20260503222427 15 281 4.8 4.8 0.00 0.00 0.00 30 1012.8
20260503221925 15 107 0.0 1.6 0.00 0.00 0.00 30 1012.7
20260503221423 15 98 0.0 1.6 0.00 0.00 0.00 30 1012.8
20260503220919 15 107 1.6 1.6 0.00 0.00 0.00 28 1012.8
20260503220415 16 57 0.0 1.6 0.00 0.00 0.00 30 1012.9
20260503215913 16 95 3.2 4.8 0.00 0.00 0.00 28 1012.8
20260503215410 15 258 6.4 6.4 0.00 0.00 0.00 27 1012.8
20260503214907 15 210 6.4 9.7 0.00 0.00 0.00 27 1012.8
20260503214404 15 270 6.4 6.4 0.00 0.00 0.00 28 1012.8
20260503213902 15 329 4.8 4.8 0.00 0.00 0.00 29 1012.7
20260503213400 15 113 1.6 1.6 0.00 0.00 0.00 31 1012.5
20260503212856 16 264 8.0 9.7 0.00 0.00 0.00 31 1012.6
20260503212354 15 85 0.0 1.6 0.00 0.00 0.00 31 1012.5
20260503211851 15 79 3.2 6.4 0.00 0.00 0.00 29 1012.4
20260503211347 15 217 8.0 9.7 0.00 0.00 0.00 30 1012.7
20260503210842 16 174 1.6 3.2 0.00 0.00 0.00 31 1012.6
20260503210340 16 145 3.2 3.2 0.00 0.00 0.00 30 1012.7
20260503205835 15 286 9.7 12.9 0.00 0.00 0.00 30 1012.7
20260503205332 16 247 4.8 6.4 0.00 0.00 0.00 30 1012.7
20260503204828 16 138 1.6 1.6 0.00 0.00 0.00 30 1012.5
20260503204326 15 169 3.2 4.8 0.00 0.00 0.00 31 1012.7
20260503203823 15 276 6.4 6.4 0.00 0.00 0.00 32 1012.8
20260503203320 15 299 4.8 6.4 0.00 0.00 0.00 31 1012.7
20260503202817 15 306 8.0 11.3 0.00 0.00 0.00 32 1012.8
20260503202315 15 109 3.2 4.8 0.00 0.00 0.00 32 1012.8
20260503201813 14 49 3.2 4.8 0.00 0.00 0.00 32 1012.9
20260503201310 15 109 1.6 1.6 0.00 0.00 0.00 33 1012.9
20260503200808 14 150 3.2 3.2 0.00 0.00 0.00 32 1013.0
20260503200303 14 124 4.8 6.4 0.00 0.00 0.00 33 1013.1
20260503195801 13 164 3.2 3.2 0.00 0.00 0.00 33 1013.2
20260503195257 15 34 3.2 4.8 0.00 0.00 0.00 33 1013.1
20260503194754 15 123 3.2 4.8 0.00 0.00 0.00 33 1013.3
20260503194250 14 35 3.2 4.8 0.00 0.00 0.00 33 1013.2
20260503193741 15 81 0.0 1.6 0.00 0.00 0.00 34 1013.4
20260503193237 13 270 8.0 11.3 0.00 0.00 0.00 35 1013.4
20260503192733 14 338 4.8 4.8 0.00 0.00 0.00 35 1013.3
20260503192228 13 114 0.0 0.0 0.00 0.00 0.00 36 1013.3
20260503191726 12 95 1.6 3.2 0.00 0.00 0.00 36 1013.5
20260503191223 12 84 1.6 1.6 0.00 0.00 0.00 36 1013.7
20260503190720 13 183 1.6 3.2 0.00 0.00 0.00 37 1013.8
20260503190216 12 79 1.6 1.6 0.00 0.00 0.00 38 1013.7
20260503185714 12 148 3.2 3.2 0.00 0.00 0.00 36 1013.6
20260503185209 12 69 1.6 3.2 0.00 0.00 0.00 36 1013.8
20260503184704 13 270 4.8 4.8 0.00 0.00 0.00 36 1014.0
20260503184200 12 5 4.8 6.4 0.00 0.00 0.00 37 1013.9
20260503183656 12 27 4.8 4.8 0.00 0.00 0.00 36 1014.0
20260503183154 12 340 6.4 6.4 0.00 0.00 0.00 37 1013.9
20260503182652 12 114 1.6 1.6 0.00 0.00 0.00 37 1014.2
20260503182150 12 264 8.0 11.3 0.00 0.00 0.00 37 1014.2
20260503181647 12 289 8.0 9.7 0.00 0.00 0.00 37 1014.1
20260503181144 13 15 3.2 4.8 0.00 0.00 0.00 38 1014.2
20260503180640 11 174 1.6 3.2 0.00 0.00 0.00 39 1014.0
20260503180138 11 95 1.6 1.6 0.00 0.00 0.00 40 1014.1
20260503175635 11 81 3.2 3.2 0.00 0.00 0.00 39 1014.3
20260503175132 11 119 1.6 1.6 0.00 0.00 0.00 40 1014.4
20260503174628 11 67 3.2 3.2 0.00 0.00 0.00 39 1014.2
20260503174125 11 271 3.2 4.8 0.00 0.00 0.00 40 1014.3
20260503173620 11 101 1.6 1.6 0.00 0.00 0.00 38 1014.4
20260503173117 12 110 1.6 1.6 0.00 0.00 0.00 39 1014.5
20260503172614 11 76 1.6 1.6 0.00 0.00 0.00 39 1014.4
20260503172111 11 218 11.3 14.5 0.00 0.00 0.00 40 1014.4
20260503171608 11 113 3.2 4.8 0.00 0.00 0.00 39 1014.5
20260503171105 11 123 0.0 1.6 0.00 0.00 0.00 39 1014.2
20260503170601 11 221 4.8 6.4 0.00 0.00 0.00 38 1014.5
20260503150954 10 290 4.8 6.4 0.00 0.00 0.00 44 1014.5
20260503150450 10 28 4.8 4.8 0.00 0.00 0.00 44 1014.5
20260503131338 8 152 1.6 3.2 0.00 0.00 0.00 60 1015.1
20260503130835 8 107 3.2 4.8 0.00 0.00 0.00 61 1015.2
20260503130333 7 307 1.6 3.2 0.00 0.00 0.00 62 1014.9